When you browse on this site, cookies collect data to enhance your experience and personalize the content and advertising you see.
Visit our Privacy Policy to learn more. By continuing to use the site, you agree to this use of cookies and data.
  • In Hungary
  • List of Countries
  • For 7 days
  • Water Temperature
  • Satellite Maps
  • Weather Map
  • News
  • Weather Widgets
  • user-avatar
    Login

    Hourly Weather Izi Kugunur

    Today, 21 November, Wednesday

    Time Temperature Precipitation Wind Pressure Humidity
    00:00 -7°C° 0 mm 4 mps 743 mmHg 84%
    01:00 -7°C° 0 mm 4 mps 743 mmHg 83%
    02:00 -7°C° 0 mm 5 mps 742 mmHg 82%
    03:00 -7°C° 0 mm 5 mps 742 mmHg 82%
    04:00 -7°C° 0.1 mm 5 mps 741 mmHg 82%
    05:00 -7°C° 0.1 mm 5 mps 741 mmHg 83%
    06:00 -7°C° 0.1 mm 5 mps 740 mmHg 84%
    07:00 -6°C° 0.1 mm 5 mps 740 mmHg 84%
    08:00 -6°C° 0.1 mm 5 mps 740 mmHg 84%
    09:00 -5°C° 0 mm 5 mps 739 mmHg 85%
    10:00 -5°C° 0.2 mm 6 mps 739 mmHg 84%
    11:00 -4°C° 0.2 mm 6 mps 739 mmHg 82%
    12:00 -4°C° 0.2 mm 7 mps 739 mmHg 81%
    13:00 -4°C° 0 mm 6 mps 739 mmHg 78%
    14:00 -5°C° 0 mm 6 mps 739 mmHg 75%
    15:00 -5°C° 0 mm 4 mps 739 mmHg 77%
    16:00 -5°C° 0 mm 4 mps 739 mmHg 78%
    17:00 -6°C° 0 mm 5 mps 740 mmHg 78%
    18:00 -7°C° 0 mm 5 mps 740 mmHg 79%
    19:00 -7°C° 0 mm 5 mps 740 mmHg 79%
    20:00 -7°C° 0 mm 5 mps 740 mmHg 80%
    21:00 -8°C° 0 mm 5 mps 740 mmHg 80%
    22:00 -8°C° 0 mm 5 mps 740 mmHg 81%
    23:00 -8°C° 0 mm 5 mps 740 mmHg 83%

    Tomorrow, 22 November, Thursday

    Time Temperature Precipitation Wind Pressure Humidity
    00:00 -8°C° 0 mm 4 mps 739 mmHg 84%
    01:00 -9°C° 0 mm 4 mps 739 mmHg 86%
    02:00 -9°C° 0 mm 4 mps 739 mmHg 88%
    03:00 -9°C° 0 mm 4 mps 739 mmHg 90%
    04:00 -9°C° 0 mm 4 mps 738 mmHg 90%
    05:00 -9°C° 0 mm 4 mps 738 mmHg 90%
    06:00 -9°C° 0 mm 4 mps 737 mmHg 90%
    07:00 -8°C° 0.1 mm 5 mps 737 mmHg 88%
    08:00 -8°C° 0.1 mm 5 mps 736 mmHg 87%
    09:00 -8°C° 0.1 mm 6 mps 735 mmHg 85%
    10:00 -8°C° 0.2 mm 6 mps 734 mmHg 84%
    11:00 -8°C° 0.2 mm 7 mps 733 mmHg 82%
    12:00 -8°C° 0.2 mm 7 mps 732 mmHg 81%
    13:00 -7°C° 0.5 mm 7 mps 731 mmHg 83%
    14:00 -7°C° 0.5 mm 7 mps 730 mmHg 85%
    15:00 -7°C° 0.5 mm 7 mps 730 mmHg 87%
    16:00 -7°C° 0.3 mm 7 mps 729 mmHg 86%
    17:00 -5°C° 0.3 mm 6 mps 729 mmHg 85%
    18:00 -5°C° 0.3 mm 5 mps 729 mmHg 84%
    19:00 -5°C° 0.1 mm 4 mps 729 mmHg 86%
    20:00 -6°C° 0.1 mm 3 mps 729 mmHg 88%
    21:00 -5°C° 0.1 mm 2 mps 729 mmHg 89%
    22:00 -6°C° 0.1 mm 2 mps 729 mmHg 88%
    23:00 -7°C° 0.1 mm 3 mps 729 mmHg 87%

    Day after tomorrow, 23 November, Friday

    Time Temperature Precipitation Wind Pressure Humidity
    00:00 -8°C° 0.1 mm 3 mps 730 mmHg 86%
    01:00 -8°C° 0.1 mm 3 mps 730 mmHg 86%
    02:00 -9°C° 0.1 mm 4 mps 731 mmHg 85%
    03:00 -10°C° 0.1 mm 4 mps 732 mmHg 85%
    04:00 -11°C° 0 mm 4 mps 733 mmHg 83%
    05:00 -12°C° 0 mm 5 mps 734 mmHg 81%
    06:00 -13°C° 0 mm 5 mps 735 mmHg 79%
    07:00 -13°C° 0 mm 5 mps 736 mmHg 80%
    08:00 -12°C° 0 mm 5 mps 737 mmHg 82%
    09:00 -12°C° 0 mm 5 mps 738 mmHg 84%
    10:00 -12°C° 0.1 mm 5 mps 738 mmHg 82%
    11:00 -11°C° 0.1 mm 6 mps 739 mmHg 79%
    12:00 -10°C° 0.1 mm 6 mps 740 mmHg 77%
    13:00 -11°C° 0 mm 6 mps 740 mmHg 77%
    14:00 -11°C° 0 mm 6 mps 741 mmHg 78%
    15:00 -12°C° 0 mm 5 mps 741 mmHg 78%
    16:00 -12°C° 0 mm 5 mps 742 mmHg 80%
    17:00 -13°C° 0 mm 5 mps 742 mmHg 82%
    18:00 -12°C° 0 mm 4 mps 743 mmHg 83%
    19:00 -12°C° 0 mm 4 mps 743 mmHg 84%
    20:00 -11°C° 0 mm 4 mps 743 mmHg 85%
    21:00 -11°C° 0 mm 4 mps 743 mmHg 86%
    22:00 -10°C° 0.1 mm 4 mps 743 mmHg 87%
    23:00 -10°C° 0.1 mm 4 mps 743 mmHg 87%

    24 November, Saturday

    Time Temperature Precipitation Wind Pressure Humidity
    00:00 -10°C° 0.1 mm 4 mps 743 mmHg 88%
    01:00 -9°C° 0.1 mm 4 mps 743 mmHg 88%
    02:00 -9°C° 0.1 mm 4 mps 743 mmHg 88%
    03:00 -9°C° 0.1 mm 4 mps 743 mmHg 89%
    04:00 -10°C° 0 mm 5 mps 743 mmHg 89%
    05:00 -10°C° 0 mm 5 mps 742 mmHg 88%
    06:00 -10°C° 0 mm 5 mps 742 mmHg 88%
    07:00 -10°C° 0 mm 5 mps 742 mmHg 88%
    08:00 -10°C° 0 mm 5 mps 741 mmHg 88%
    09:00 -10°C° 0 mm 6 mps 741 mmHg 88%
    10:00 -10°C° 0 mm 6 mps 741 mmHg 87%
    11:00 -9°C° 0 mm 6 mps 740 mmHg 85%
    12:00 -9°C° 0 mm 7 mps 740 mmHg 83%
    13:00 -8°C° 0.1 mm 7 mps 740 mmHg 83%
    14:00 -8°C° 0.1 mm 6 mps 739 mmHg 82%
    15:00 -6°C° 0.1 mm 6 mps 739 mmHg 82%
    16:00 -6°C° 0 mm 6 mps 739 mmHg 82%
    17:00 -6°C° 0 mm 6 mps 739 mmHg 83%
    18:00 -6°C° 0 mm 6 mps 739 mmHg 84%
    19:00 -6°C° 0 mm 6 mps 739 mmHg 85%
    20:00 -6°C° 0 mm 6 mps 739 mmHg 85%
    21:00 -6°C° 0 mm 5 mps 739 mmHg 86%
    22:00 -6°C° 0 mm 5 mps 739 mmHg 86%
    23:00 -6°C° 0 mm 5 mps 739 mmHg 86%

    25 November, Sunday

    Time Temperature Precipitation Wind Pressure Humidity
    00:00 -6°C° 0 mm 5 mps 739 mmHg 87%
    01:00 -6°C° 0.1 mm 5 mps 738 mmHg 87%
    02:00 -6°C° 0.1 mm 5 mps 738 mmHg 87%
    03:00 -6°C° 0.1 mm 5 mps 738 mmHg 88%
    04:00 -6°C° 0.2 mm 5 mps 737 mmHg 89%
    05:00 -6°C° 0.2 mm 5 mps 737 mmHg 89%
    06:00 -6°C° 0.2 mm 5 mps 737 mmHg 90%
    07:00 -6°C° 0.3 mm 6 mps 737 mmHg 89%
    08:00 -6°C° 0.3 mm 6 mps 737 mmHg 88%
    09:00 -6°C° 0.3 mm 6 mps 737 mmHg 87%
    10:00 -5°C° 0.1 mm 6 mps 737 mmHg 85%
    11:00 -5°C° 0.1 mm 6 mps 738 mmHg 82%
    12:00 -4°C° 0.1 mm 6 mps 738 mmHg 80%
    13:00 -5°C° 0 mm 5 mps 739 mmHg 81%
    14:00 -5°C° 0 mm 5 mps 740 mmHg 82%
    15:00 -5°C° 0 mm 4 mps 740 mmHg 83%
    16:00 -5°C° 0 mm 4 mps 741 mmHg 84%
    17:00 -6°C° 0 mm 3 mps 741 mmHg 86%
    18:00 -6°C° 0 mm 3 mps 742 mmHg 87%
    19:00 -6°C° 0 mm 2 mps 742 mmHg 88%
    20:00 -6°C° 0 mm 2 mps 742 mmHg 89%
    21:00 -6°C° 0 mm 2 mps 742 mmHg 90%
    22:00 -6°C° 0 mm 2 mps 743 mmHg 91%
    23:00 -7°C° 0 mm 2 mps 743 mmHg 92%

    26 November, Monday

    Time Temperature Precipitation Wind Pressure Humidity
    00:00 -7°C° 0 mm 2 mps 743 mmHg 93%
    01:00 -7°C° 0 mm 2 mps 743 mmHg 93%
    02:00 -7°C° 0 mm 2 mps 742 mmHg 94%
    03:00 -7°C° 0 mm 2 mps 742 mmHg 94%
    04:00 -7°C° 0 mm 2 mps 742 mmHg 94%
    05:00 -7°C° 0 mm 2 mps 742 mmHg 94%
    06:00 -7°C° 0 mm 2 mps 741 mmHg 94%
    07:00 -7°C° 0 mm 2 mps 741 mmHg 94%
    08:00 -7°C° 0 mm 2 mps 741 mmHg 94%
    09:00 -7°C° 0 mm 2 mps 741 mmHg 94%
    10:00 -6°C° 0 mm 2 mps 741 mmHg 93%
    11:00 -4°C° 0 mm 1 mps 740 mmHg 92%
    12:00 -4°C° 0 mm 1 mps 740 mmHg 91%
    13:00 -4°C° 0.2 mm 1 mps 739 mmHg 92%
    14:00 -4°C° 0.2 mm 1 mps 739 mmHg 94%
    15:00 -4°C° 0.2 mm 1 mps 739 mmHg 95%
    16:00 -4°C° 0.2 mm 1 mps 738 mmHg 96%
    17:00 -4°C° 0.2 mm 1 mps 738 mmHg 96%
    18:00 -4°C° 0.2 mm 1 mps 738 mmHg 96%
    19:00 -6°C° 0.1 mm 1 mps 737 mmHg 96%
    20:00 -6°C° 0.1 mm 1 mps 737 mmHg 97%
    21:00 -6°C° 0.1 mm 1 mps 737 mmHg 97%
    22:00 -6°C° 0.1 mm 1 mps 737 mmHg 97%
    23:00 -7°C° 0.1 mm 2 mps 737 mmHg 96%
    Show more